Location: Kalberh�ni
(46.4610°N, 7.2453°E)
Time: 06:27:50
(UTC+00:00)

Cosmos 1802 Rocket - Pass Details

Date: 27 October 2021
Orbit: 955 x 1010 km, 82.9° (Epoch: 05 December)

Event Time Altitude Azimuth Distance (km) Brightness Sun altitude
Rises 18:06:12 0° 162° (SSE) 3,620 6.8 -18.2°
Reaches altitude 10° 18:08:50 10° 155° (SSE) 2,678 6.0 -18.7°
Maximum altitude 18:14:26 39° 88° (E) 1,398 4.3 -19.6°
Drops below altitude 10° 18:20:05 10° 22° (NNE) 2,706 6.1 -20.6°
Sets 18:22:44 0° 15° (NNE) 3,663 6.9 -21.1°
